GW5276 Weather Reports


time (UTC)temp
F
wind
direction
speed
knots
gust
knots
rain 1hr
in
rain 24hr
in
rain mn
in
humidity
%
barometer
mb
20260510045424 46 342 0.0 0.0 0.00 0.00 0.00 97 1012.4
20260510044920 46 342 0.0 0.0 0.00 0.00 0.00 97 1012.6
20260510044417 46 342 0.0 0.0 0.00 0.00 0.00 97 1012.5
20260510043914 46 338 0.0 0.0 0.00 0.00 0.00 97 1012.6
20260510043410 46 338 0.0 0.0 0.00 0.00 0.00 97 1012.4
20260510042908 46 337 0.0 0.0 0.00 0.00 0.00 97 1012.5
20260510042404 46 337 0.0 0.0 0.00 0.00 0.00 97 1012.2
20260510041900 46 340 0.0 0.0 0.00 0.00 0.00 97 1012.4
20260510041357 46 338 0.0 0.0 0.00 0.00 0.00 96 1012.3
20260510040855 46 339 0.0 0.0 0.00 0.00 0.00 97 1012.3
20260510040352 46 339 0.0 0.0 0.00 0.00 0.00 96 1012.3
20260510035847 46 339 0.0 0.0 0.00 0.00 0.00 97 1012.3
20260510035343 46 338 0.0 0.0 0.00 0.00 0.00 96 1012.1
20260510034839 47 335 0.0 0.0 0.00 0.00 0.00 96 1011.9
20260510034337 47 335 0.0 0.0 0.00 0.00 0.00 96 1011.7
20260510033833 47 334 0.0 0.0 0.00 0.00 0.00 96 1011.6
20260510033330 47 334 0.0 0.0 0.00 0.00 0.00 96 1011.7
20260510032826 47 333 0.9 0.9 0.00 0.00 0.00 96 1011.7
20260510032323 47 333 0.0 0.9 0.00 0.00 0.00 96 1011.9
20260510031819 47 333 0.0 0.9 0.00 0.00 0.00 96 1011.4
20260510031315 47 334 0.0 0.0 0.00 0.00 0.00 96 1011.5
20260510030815 47 334 0.0 0.0 0.00 0.00 0.00 95 1011.6
20260510030311 48 334 0.0 0.0 0.00 0.00 0.00 96 1011.7
20260510025809 47 334 0.0 0.0 0.00 0.00 0.00 95 1011.6
20260510025306 48 334 0.0 0.0 0.00 0.00 0.00 95 1011.7
20260510024802 48 295 0.0 0.0 0.00 0.00 0.00 95 1011.5
20260510024300 48 277 0.0 0.0 0.00 0.00 0.00 95 1011.4
20260510023756 48 277 0.0 0.0 0.00 0.00 0.00 95 1011.4
20260510023253 48 277 0.0 0.0 0.00 0.00 0.00 95 1011.4
20260510022749 49 277 0.0 0.0 0.00 0.00 0.00 95 1011.3
20260510022249 49 277 0.0 0.0 0.00 0.00 0.00 95 1011.2
20260510021748 49 277 0.0 0.0 0.00 0.00 0.00 94 1011.1
20260510021247 49 277 0.0 0.0 0.00 0.00 0.00 95 1011.5
20260510020742 49 277 0.0 0.0 0.00 0.00 0.00 94 1011.2
20260510020242 49 277 0.0 0.0 0.00 0.00 0.00 94 1011.0
20260510015739 49 277 0.0 0.0 0.00 0.00 0.00 94 1011.0
20260510015235 50 236 0.0 0.0 0.00 0.00 0.00 94 1010.9
20260510014730 50 236 0.0 0.0 0.00 0.00 0.00 93 1010.7
20260510014228 50 236 0.0 0.0 0.00 0.00 0.00 93 1010.9
20260510013723 50 236 0.0 0.0 0.00 0.00 0.00 93 1010.6
20260510013219 50 236 0.0 0.0 0.00 0.00 0.00 93 1010.8
20260510012719 51 235 0.0 0.0 0.00 0.00 0.00 93 1010.8
20260510012214 51 235 0.0 0.0 0.00 0.00 0.00 93 1010.3
20260510011709 51 235 0.0 0.0 0.00 0.00 0.00 92 1010.5
20260510011205 51 235 0.0 0.0 0.00 0.00 0.00 92 1010.4
20260510010701 52 235 0.0 0.0 0.00 0.00 0.00 91 1010.5
20260510010158 52 235 0.0 0.0 0.00 0.00 0.00 91 1010.3
20260510005654 53 235 0.0 0.0 0.00 0.00 0.00 91 1010.3
20260510005151 53 234 0.0 0.0 0.00 0.00 0.00 91 1010.1
20260510004649 54 234 0.0 0.0 0.00 0.00 0.00 90 1010.1
20260510004147 54 235 0.0 0.0 0.00 0.00 0.00 89 1010.1
20260510003644 55 234 0.0 0.0 0.00 0.00 0.00 89 1010.0
20260510003140 55 235 0.0 0.0 0.00 0.00 0.00 88 1009.9
20260510002635 56 235 0.0 0.0 0.00 0.00 0.00 86 1009.8
20260510002132 57 234 0.0 0.0 0.00 0.00 0.00 85 1009.7
20260510001629 57 234 0.0 0.0 0.00 0.00 0.00 83 1009.6
20260510001128 58 230 0.0 0.0 0.00 0.00 0.00 81 1009.6
20260510000627 59 230 0.0 1.7 0.00 0.00 0.00 79 1009.5
20260510000125 61 122 0.0 0.0 0.00 0.00 0.00 76 1009.6
20260509235621 62 131 0.0 0.0 0.00 0.00 0.00 75 1009.6
20260509235118 63 242 0.0 0.0 0.00 0.00 0.00 69 1009.5
20260509234614 63 151 0.9 0.9 0.00 0.00 0.00 64 1009.3
20260509234112 64 329 0.0 0.0 0.00 0.00 0.00 64 1009.3
20260509233609 65 313 0.0 0.9 0.00 0.00 0.00 66 1009.3
20260509233107 65 328 0.9 1.7 0.00 0.00 0.00 60 1009.2
20260509232603 65 297 1.7 2.6 0.00 0.00 0.00 61 1009.3
20260509232100 66 277 1.7 2.6 0.00 0.00 0.00 61 1009.1
20260509231556 66 262 0.9 2.6 0.00 0.00 0.00 60 1009.3
20260509231054 67 242 0.9 1.7 0.00 0.00 0.00 61 1008.9
20260509230550 68 270 1.7 2.6 0.00 0.00 0.00 56 1009.4
20260509230048 69 261 0.9 2.6 0.00 0.00 0.00 56 1009.5
20260509225543 68 233 4.3 7.8 0.00 0.00 0.00 54 1009.4
20260509225039 69 229 1.7 5.2 0.00 0.00 0.00 57 1009.5
20260509224535 69 218 1.7 5.2 0.00 0.00 0.00 54 1009.7
20260509224032 69 293 1.7 1.7 0.00 0.00 0.00 55 1009.4
20260509223529 69 232 1.7 6.1 0.00 0.00 0.00 57 1009.6
20260509223027 69 201 1.7 5.2 0.00 0.00 0.00 56 1009.5
20260509222522 69 222 1.7 7.0 0.00 0.00 0.00 55 1009.6
20260509222018 69 237 5.2 7.0 0.00 0.00 0.00 53 1009.7
20260509221514 69 75 0.9 7.0 0.00 0.00 0.00 54 1009.5
20260509221010 68 281 1.7 5.2 0.00 0.00 0.00 56 1009.6
20260509220506 69 289 1.7 5.2 0.00 0.00 0.00 56 1009.6
20260509220003 69 305 0.9 5.2 0.00 0.00 0.00 55 1009.7
20260509215458 69 251 3.5 7.0 0.00 0.00 0.00 55 1009.8
20260509214956 68 237 1.7 3.5 0.00 0.00 0.00 55 1009.6
20260509214453 68 277 1.7 3.5 0.00 0.00 0.00 56 1009.7
20260509213949 69 302 3.5 7.8 0.00 0.00 0.00 55 1009.7
20260509213445 69 229 1.7 3.5 0.00 0.00 0.00 57 1009.8
20260509212943 69 255 3.5 7.0 0.00 0.00 0.00 56 1009.8
20260509212440 68 244 1.7 5.2 0.00 0.00 0.00 57 1009.8
20260509211936 67 248 0.9 2.6 0.00 0.00 0.00 56 1009.7
20260509211432 67 219 2.6 5.2 0.00 0.00 0.00 57 1009.6
20260509210928 67 216 1.7 3.5 0.00 0.00 0.00 57 1009.7
20260509210426 67 216 1.7 2.6 0.00 0.00 0.00 58 1009.7
20260509205921 67 207 2.6 3.5 0.00 0.00 0.00 57 1009.8
20260509205420 67 233 1.7 1.7 0.00 0.00 0.00 58 1009.7
20260509204917 66 217 0.9 6.1 0.00 0.00 0.00 59 1009.7
20260509204413 67 273 3.5 6.1 0.00 0.00 0.00 57 1009.8
20260509203910 67 222 5.2 7.8 0.00 0.00 0.00 56 1009.6
20260509203406 67 238 0.9 1.7 0.00 0.00 0.00 58 1009.7
20260509202904 67 220 3.5 3.5 0.00 0.00 0.00 57 1009.6
20260509202359 67 268 0.9 0.9 0.00 0.00 0.00 56 1009.5
20260509201854 67 244 0.9 2.6 0.00 0.00 0.00 57 1009.8
20260509201350 67 222 3.5 5.2 0.00 0.00 0.00 57 1009.5
20260509200847 67 256 3.5 6.1 0.00 0.00 0.00 57 1009.8
20260509200342 66 277 2.6 6.1 0.00 0.00 0.00 58 1009.8
20260509195839 67 247 1.7 5.2 0.00 0.00 0.00 61 1010.0
20260509195339 66 250 1.7 2.6 0.00 0.00 0.00 57 1009.9
20260509194839 66 218 1.7 5.2 0.00 0.00 0.00 60 1010.1
20260509194335 66 272 2.6 3.5 0.00 0.00 0.00 60 1010.2
20260509193833 66 274 2.6 3.5 0.00 0.00 0.00 61 1010.1
20260509193332 66 285 3.5 6.1 0.00 0.00 0.00 58 1009.9
20260509192829 67 260 2.6 3.5 0.00 0.00 0.00 58 1010.1
20260509192320 67 300 2.6 3.5 0.00 0.00 0.00 56 1010.1
20260509191814 66 222 0.9 7.0 0.00 0.00 0.00 55 1010.1
20260509191311 66 263 1.7 3.5 0.00 0.00 0.00 56 1010.1
20260509190807 66 267 4.3 9.6 0.00 0.00 0.00 57 1010.0
20260509190304 66 261 0.9 5.2 0.00 0.00 0.00 56 1010.2
20260509185801 66 297 1.7 3.5 0.00 0.00 0.00 57 1010.0
20260509185257 65 257 2.6 6.1 0.00 0.00 0.00 57 1010.1
20260509184755 65 240 2.6 2.6 0.00 0.00 0.00 58 1009.8
20260509184253 65 266 2.6 3.5 0.00 0.00 0.00 55 1009.9
20260509183749 65 230 1.7 1.7 0.00 0.00 0.00 56 1009.8
20260509183244 65 283 3.5 3.5 0.00 0.00 0.00 57 1010.2
20260509182740 66 277 2.6 2.6 0.00 0.00 0.00 59 1009.9
20260509182237 65 281 0.9 3.5 0.00 0.00 0.00 57 1009.8
20260509181729 66 236 2.6 3.5 0.00 0.00 0.00 59 1009.7
20260509181226 66 224 0.9 2.6 0.00 0.00 0.00 60 1009.9
20260509180723 66 229 1.7 2.6 0.00 0.00 0.00 59 1009.7
20260509180220 65 222 0.9 6.1 0.00 0.00 0.00 59 1009.9
20260509175716 64 298 1.7 5.2 0.00 0.00 0.00 58 1010.0
20260509175212 64 210 2.6 6.1 0.00 0.00 0.00 57 1010.1
20260509174708 64 316 5.2 7.0 0.00 0.00 0.00 56 1010.0
20260509174204 65 338 0.0 0.9 0.00 0.00 0.00 60 1009.9
20260509173700 64 334 1.7 6.1 0.00 0.00 0.00 58 1010.0
20260509173156 64 355 0.9 2.6 0.00 0.00 0.00 56 1010.2
20260509172652 63 332 1.7 5.2 0.00 0.00 0.00 60 1010.3
20260509172149 63 335 0.9 7.0 0.00 0.00 0.00 58 1010.1
20260509171643 63 342 0.0 2.6 0.00 0.00 0.00 60 1010.5
20260509171140 63 333 5.2 6.1 0.00 0.00 0.00 55 1010.2
20260509170637 64 340 0.9 6.1 0.00 0.00 0.00 60 1010.3
20260509170133 64 336 1.7 5.2 0.00 0.00 0.00 57 1010.3
20260509165632 64 336 1.7 5.2 0.00 0.00 0.00 59 1010.2
20260509165128 64 341 0.9 2.6 0.00 0.00 0.00 60 1010.3
20260509164624 63 344 0.9 1.7 0.00 0.00 0.00 62 1010.4
20260509164120 63 342 1.7 1.7 0.00 0.00 0.00 62 1010.3
20260509163618 63 346 0.0 1.7 0.00 0.00 0.00 64 1010.4
20260509163112 62 356 0.0 1.7 0.00 0.00 0.00 66 1010.3
20260509162610 62 342 0.9 0.9 0.00 0.00 0.00 65 1010.3
20260509162105 62 342 0.9 0.9 0.00 0.00 0.00 67 1010.4
20260509161603 61 344 0.0 0.0 0.00 0.00 0.00 65 1010.4
20260509161102 62 356 0.9 0.9 0.00 0.00 0.00 65 1010.5
20260509160559 61 0 0.0 0.9 0.00 0.00 0.00 68 1010.4
20260509160054 61 348 0.9 0.9 0.00 0.00 0.00 66 1010.6
20260509155551 61 357 0.0 1.7 0.00 0.00 0.00 67 1010.6
20260509155047 62 12 1.7 2.6 0.00 0.00 0.00 66 1010.6
20260509154543 62 7 1.7 2.6 0.00 0.00 0.00 65 1010.7
20260509154041 63 19 3.5 3.5 0.00 0.00 0.00 65 1010.7
20260509153537 63 346 0.0 0.9 0.00 0.00 0.00 65 1010.6
20260509153034 61 351 0.0 1.7 0.00 0.00 0.00 65 1010.8
20260509152530 61 351 0.0 1.7 0.00 0.00 0.00 67 1010.9
20260509152027 60 343 0.9 0.9 0.00 0.00 0.00 70 1010.9
20260509151523 60 344 0.9 0.9 0.00 0.00 0.00 72 1010.9
20260509151021 60 343 1.7 2.6 0.00 0.00 0.00 71 1011.0
20260509150518 59 351 0.0 0.9 0.00 0.00 0.00 74 1011.3
20260509150017 59 348 0.9 1.7 0.00 0.00 0.00 73 1010.9
20260509145512 59 348 0.0 0.0 0.00 0.00 0.00 72 1011.0
20260509145007 59 347 0.9 0.9 0.00 0.00 0.00 73 1011.1
20260509144505 60 353 0.0 0.0 0.00 0.00 0.00 72 1011.1
20260509144001 59 358 0.0 1.7 0.00 0.00 0.00 73 1011.1
20260509143458 59 350 0.9 2.6 0.00 0.00 0.00 73 1011.0
20260509142955 59 5 1.7 2.6 0.00 0.00 0.00 74 1011.0
20260509142452 58 11 0.9 2.6 0.00 0.00 0.00 75 1010.9
20260509141947 58 354 0.0 0.9 0.00 0.00 0.00 75 1011.0
20260509141444 58 352 0.0 0.9 0.00 0.00 0.00 78 1010.9
20260509140941 58 2 1.7 1.7 0.00 0.00 0.00 77 1010.8
20260509140437 58 357 0.0 2.6 0.00 0.00 0.00 77 1010.8
20260509135936 57 1 1.7 1.7 0.00 0.00 0.00 78 1011.0
20260509135432 57 358 0.9 1.7 0.00 0.00 0.00 78 1011.1
20260509134930 56 359 0.9 1.7 0.00 0.00 0.00 80 1011.1
20260509134427 56 358 0.0 2.6 0.00 0.00 0.00 80 1011.2
20260509133924 56 359 1.7 1.7 0.00 0.00 0.00 80 1011.3
20260509133421 56 347 0.9 1.7 0.00 0.00 0.00 81 1011.5
20260509132919 56 357 0.0 0.0 0.00 0.00 0.00 80 1011.5
20260509132417 56 356 0.0 0.0 0.00 0.00 0.00 80 1011.5
20260509131914 56 0 0.9 1.7 0.00 0.00 0.00 85 1011.6
20260509131411 56 351 0.0 1.7 0.00 0.00 0.00 85 1011.6
20260509130908 55 348 0.0 0.0 0.00 0.00 0.00 87 1011.4
20260509130403 55 350 0.0 0.0 0.00 0.00 0.00 87 1011.3
20260509125900 54 350 0.0 0.0 0.00 0.00 0.00 88 1011.5
20260509125356 54 353 0.0 0.0 0.00 0.00 0.00 90 1011.5
20260509124852 53 353 0.0 0.0 0.00 0.00 0.00 91 1011.6
20260509124350 53 353 0.0 0.0 0.00 0.00 0.00 91 1011.4
20260509123848 52 353 0.0 0.0 0.00 0.00 0.00 93 1011.4
20260509123345 52 352 0.0 0.0 0.00 0.00 0.00 93 1011.7
20260509122840 52 351 0.0 0.0 0.00 0.00 0.00 93 1011.6
20260509122337 52 350 0.0 0.0 0.00 0.00 0.00 94 1011.7
20260509121834 51 350 0.0 0.0 0.00 0.00 0.00 94 1011.6
20260509121331 51 350 0.0 0.0 0.00 0.00 0.00 93 1011.6
20260509120830 51 350 0.0 0.0 0.00 0.00 0.00 93 1011.5
20260509120327 51 350 0.0 0.0 0.00 0.00 0.00 93 1011.6
20260509115825 51 350 0.0 0.0 0.00 0.00 0.00 93 1011.5
20260509115322 51 349 0.0 0.0 0.00 0.00 0.00 93 1011.5
20260509114820 51 349 0.0 0.0 0.00 0.00 0.00 93 1011.4
20260509114318 51 349 0.0 0.0 0.00 0.00 0.00 93 1011.7
20260509113817 51 349 0.0 0.0 0.00 0.00 0.00 94 1011.5
20260509113313 51 349 0.0 0.0 0.00 0.00 0.00 94 1011.7
20260509112810 50 349 0.0 0.0 0.00 0.00 0.00 94 1011.6
20260509112308 50 349 0.0 0.0 0.00 0.00 0.00 94 1011.4
20260509111804 50 349 0.0 0.0 0.00 0.00 0.00 94 1011.5
20260509111301 50 349 0.0 0.0 0.00 0.00 0.00 94 1011.4
20260509110759 50 349 0.0 0.0 0.00 0.00 0.00 94 1011.5
20260509110255 50 349 0.0 0.0 0.00 0.00 0.00 94 1011.4
20260509105753 50 349 0.0 0.0 0.00 0.00 0.00 95 1011.3
20260509105250 50 349 0.0 0.0 0.00 0.00 0.00 95 1011.3
20260509104747 50 349 0.0 0.0 0.00 0.00 0.00 95 1011.2
20260509104244 50 349 0.0 0.0 0.00 0.00 0.00 95 1011.1
20260509103742 50 349 0.0 0.0 0.00 0.00 0.00 94 1011.5
20260509103239 50 349 0.0 0.0 0.00 0.00 0.00 94 1011.2
20260509102738 50 349 0.0 0.0 0.00 0.00 0.00 94 1011.2
20260509102234 50 349 0.0 0.0 0.00 0.00 0.00 94 1011.4
20260509101730 50 349 0.0 0.0 0.00 0.00 0.00 94 1011.2
20260509101227 50 349 0.0 0.0 0.00 0.00 0.00 94 1011.3
20260509100724 50 349 0.0 0.0 0.00 0.00 0.00 94 1011.3
20260509100221 50 349 0.0 0.0 0.00 0.00 0.00 94 1011.3
20260509095718 50 349 0.0 0.0 0.00 0.00 0.00 94 1011.4
20260509095215 50 349 0.0 0.0 0.00 0.00 0.00 94 1011.4
20260509094712 50 349 0.0 0.0 0.00 0.00 0.00 94 1011.4
20260509094209 50 349 0.0 0.0 0.00 0.00 0.00 94 1011.6
20260509093708 50 349 0.0 0.0 0.00 0.00 0.00 93 1011.4
20260509093204 50 349 0.0 0.0 0.00 0.00 0.00 93 1011.5
20260509092702 50 347 0.0 0.0 0.00 0.00 0.00 93 1011.6
20260509092200 50 354 0.0 0.0 0.00 0.00 0.00 93 1011.6
20260509091658 50 355 0.0 0.0 0.00 0.00 0.00 92 1011.7
20260509091154 50 355 0.0 0.0 0.00 0.00 0.00 92 1011.9
20260509090652 51 355 0.0 0.0 0.00 0.00 0.00 92 1011.6
20260509090149 51 354 0.0 0.0 0.00 0.00 0.00 92 1011.6
20260509085646 51 1 0.0 0.0 0.00 0.00 0.00 92 1011.6
20260509085137 51 1 0.0 0.0 0.00 0.00 0.00 91 1011.3
20260509084635 51 1 0.0 0.0 0.00 0.00 0.00 91 1011.5
20260509084131 51 355 0.0 0.0 0.00 0.00 0.00 91 1011.4
20260509083629 51 5 0.9 0.9 0.00 0.00 0.00 91 1011.4
20260509083125 51 350 0.0 0.0 0.00 0.00 0.00 91 1011.6
20260509082623 51 31 1.7 2.6 0.00 0.00 0.00 93 1011.9
20260509082119 51 353 0.0 0.0 0.00 0.00 0.00 93 1011.5
20260509081616 51 353 0.0 0.0 0.00 0.00 0.00 93 1011.4
20260509081114 51 347 0.0 0.0 0.00 0.00 0.00 93 1011.5
20260509080612 50 347 0.0 0.0 0.00 0.00 0.00 93 1011.1
20260509080109 50 347 0.0 0.0 0.00 0.00 0.00 93 1011.2
20260509075607 51 347 0.0 0.0 0.00 0.00 0.00 93 1011.1
20260509075105 51 347 0.0 0.0 0.00 0.00 0.00 93 1011.4
20260509074601 51 347 0.0 0.0 0.00 0.00 0.00 93 1011.2
20260509074057 51 355 0.0 0.0 0.00 0.00 0.00 92 1011.2
20260509073554 51 355 0.0 0.0 0.00 0.00 0.00 92 1011.2
20260509073050 51 355 0.0 0.0 0.00 0.00 0.00 92 1011.0
20260509072546 51 351 0.0 0.0 0.00 0.00 0.00 93 1010.9
20260509072043 51 345 0.0 0.0 0.00 0.00 0.00 92 1011.0
20260509071535 51 352 0.0 0.0 0.00 0.00 0.00 92 1010.9
20260509071033 51 352 0.0 0.0 0.00 0.00 0.00 92 1011.0
20260509070530 51 347 0.0 0.0 0.00 0.00 0.00 92 1010.8
20260509070026 51 2 0.0 0.0 0.00 0.00 0.00 92 1010.8
20260509065521 51 354 0.0 0.0 0.00 0.00 0.00 91 1011.1
20260509065018 51 3 0.0 0.0 0.00 0.00 0.00 91 1011.1
20260509064515 51 3 0.0 0.0 0.00 0.00 0.00 91 1011.2
20260509064014 51 349 0.0 0.0 0.00 0.00 0.00 91 1011.1
20260509063513 51 349 0.0 0.0 0.00 0.00 0.00 90 1010.9
20260509063011 51 347 0.0 0.0 0.00 0.00 0.00 90 1011.1
20260509062508 51 347 0.0 0.0 0.00 0.00 0.00 91 1010.9
20260509062006 51 347 0.0 0.0 0.00 0.00 0.00 90 1011.0
20260509061503 51 347 0.0 0.0 0.00 0.00 0.00 90 1010.8
20260509061000 51 347 0.0 0.0 0.00 0.00 0.00 90 1010.9
20260509060457 51 347 0.0 0.0 0.00 0.00 0.00 90 1010.7
20260509055953 51 347 0.0 0.0 0.00 0.00 0.00 90 1010.9
20260509055448 51 347 0.0 0.0 0.00 0.00 0.00 90 1010.8
20260509054945 51 347 0.0 0.0 0.00 0.00 0.00 90 1010.8
20260509054441 51 347 0.0 0.0 0.00 0.00 0.00 90 1011.1
20260509053940 51 347 0.0 0.0 0.00 0.00 0.00 90 1011.1
20260509053438 51 347 0.0 0.0 0.00 0.00 0.00 90 1011.0
20260509052935 51 347 0.0 0.0 0.00 0.00 0.00 91 1011.2
20260509052432 51 347 0.0 0.0 0.00 0.00 0.00 91 1011.3
20260509051930 51 347 0.0 0.0 0.00 0.00 0.00 91 1011.3
20260509051428 51 347 0.0 0.0 0.00 0.00 0.00 91 1011.2
20260509050924 51 347 0.0 0.0 0.00 0.00 0.00 91 1011.2
20260509050421 51 347 0.0 0.0 0.00 0.00 0.00 90 1011.3
20260509045918 51 347 0.0 0.0 0.00 0.00 0.00 89 1011.5